YARILO 2 (46491 NORAD) Tracking and Keplerian Element Data

This shows tracking and keplerian element data for the satellite.

Feedback or suggestion? Click here.




ElementValue
Catalog46491
NameYARILO 2
Epoch Orbit890
Epoch Day331.77947994
Epoch Year2020
RAAN264.7468
Inclination97.6722
Eccentricity0.002004
Argument of Perigee42.2337
Mean Anonmoly318.046
Mean Motion15.03527192
Decay Rate1.027E-05
L11 46491U 20068F 20331.77947994 .00001027 00000-0 79507-4 0 9997
L22 46491 97.6722 264.7468 0020040 42.2337 318.0460 15.03527192 8907

Live tracking and technical data element details for YARILO 2 (NORAD 46491). YARILO 2 can be tracked NOW for your location showing map with azimuth and elevation plus other details from your city location.

Track the satellite on the map from your city or location and see movement details for azimuth, elevation, latitude, longitude, range, height, and movement on the map or in text.







IsCatalogInMostPopularTable: catalog: 46491, numindb: 15
Update: records affected: 1



GetName: 46491 YARILO 2

Hit Count: updated at: Fri, 27 Nov 2020 14:36:41 GMT